星链-5235 (STARLINK-5235 )

导读

STARLINK-5235是美国太空探索技术公司(SpaceX)星链(Starlink)项目的卫星,于2022年10月28日发射,属于星链互联网卫星星座的组成部分。星链项目旨在为全球提供高速低延迟卫星互联网服务,该卫星入轨后助力扩展星座覆盖范围,提升服务能力。

基本信息
目录编号:
54185
目录名称:
STARLINK-5235
国际标识:
2022-141AE
轨道中心:
EARTH
卫星名称:
星链-5235
卫星全名:
星链-5235 (STARLINK-5235 )
卫星状态:
在轨 (已飞行1415 天)
发射日期:
2022-10-28 UTC
国别 :
美国 (US)
星等 :
--
该卫星已列入 空间交会检测服务 Space Conjunction Data Service (SCDS) ,当前飞行风险评估等级: 无高风险
轨道信息
数据来源 国际轨道数据 AOE轨道数据
星历时间 2026-09-12T13:35:47+0800
7小时前
查看轨道信息
2026-09-10T23:00:00+0800
1天前
查看轨道信息
半长轴 6840.866km 6840.89km
偏心率 0.0001181 0.0001065
轨道倾角 53.158° 53.162°
近地点辐角 83.431° 3.936°
升交点赤经 232.451° 239.979°
平近点角 276.683° 107.879°
近地点 461.921km 462.024km
远地点 463.537km 463.482km
周期 93.848分钟 93.849分钟
每日圈数 15.343914 15.343834
详细信息
固有亮度:
5
最大亮度:
2.5
卫星平台:
Starlink v1.5
覆盖范围:
全球
运营商:
太空探索技术公司
运营商所在国:
美国
制造商(研发单位):
太空探索技术公司
制造商所在国:
美国
使用方式:
暂无
卫星简介
星链(Starlink)计划是由太空探索技术公司(SpaceX)提出的一个巨型低轨卫星互联网星座项目,计划在2019年至2024年间在太空搭建由约1.2万颗卫星组成的“星链”网络,其中1584颗将部署在地球上空550千米处的近地轨道,并从2020年开始工作。该卫星仍在工作。
2D轨道图
3D轨道图
轨道高度分析图
轨道倾角分析图
轨道综合分析图
查看轨道综合分析图
交会数据列表
事件ID 空间交会对象 最接近时刻(TCA) 交会距离 交会风险概率(CRP) 交会风险指数(CRI) 操作
CDM_260914-102205-418506-612821
2026-09-14T
10:22:55+0000
1.128 km
极远距离
4.809048E-6 低风险 0.49
CDM_260914-051904-474405-418521
2026-09-14T
05:19:56+0000
1.623 km
极远距离
4.554139E-6 低风险 0.48
CDM_260914-084905-418506-612821
2026-09-14T
08:49:08+0000
1.442 km
极远距离
2.168763E-6 低风险 0.42
CDM_260913-235104-474405-418521
2026-09-13T
23:51:43+0000
2.222 km
极远距离
1.9669E-6 低风险 0.41
CDM_260914-013805-418506-564321
2026-09-14T
01:38:55+0000
2.021 km
极远距离
1.833533E-6 低风险 0.4
CDM_260914-010305-247305-418521
2026-09-14T
01:03:35+0000
2.795 km
极远距离
8.890112E-7 极低风险 0.34
与全量物体交会距离演化趋势
与全量物体交会风险概率演化趋势